Simultaneous Nadir Overpasses (SNOs) Predictions

Prediction of SNOs between LANDSAT-8 and METOP-B Satellite Orbit:

Table of predicted SNOs for the next 14.0 days since TLE Epoch: 9/8/2018
Index Date (LANDSAT-8) Time (LANDSAT-8) Lat,Lon (LANDSAT-8) SZA (LANDSAT-8 ) Date (METOP-B) Time (METOP-B) Lat,Lon (METOP-B) SZA (METOP-B ) Distance(km) Time Diff (sec)
1 09/09/2018 09:03:37 -81.25, -93.87 101.70 09/09/2018 09:03:11 -81.24, -94.06 101.73 3.27 26
2 09/09/2018 09:53:03 81.26, 73.90 78.34 09/09/2018 09:53:50 81.26, 73.77 78.35 2.13 47
3 09/12/2018 04:37:53 -81.25, -27.39 100.61 09/12/2018 04:37:30 -81.25, -27.56 100.64 2.79 23
4 09/12/2018 05:27:19 81.26, 140.34 79.43 09/12/2018 05:28:09 81.26, 140.24 79.44 1.77 50
5 09/15/2018 00:12:08 -81.25, 39.05 99.51 09/15/2018 00:11:48 -81.25, 38.93 99.53 2.15 20
6 09/15/2018 01:01:34 81.26,-153.24 80.52 09/15/2018 01:02:27 81.26,-153.31 80.54 1.28 53
7 09/17/2018 19:46:24 -81.25, 105.48 98.40 09/17/2018 19:46:07 -81.25, 105.40 98.42 1.37 17
8 09/17/2018 20:35:49 81.27, -86.47 81.68 09/17/2018 20:36:45 81.27, -86.48 81.70 0.55 56
9 09/20/2018 15:20:40 -81.25, 171.88 97.29 09/20/2018 15:20:26 -81.25, 171.85 97.30 0.56 14




NCC Satellite Simultaneous Nadir Overpasses (SNOs) Prediction Service
